Flag for United Kingdom Weather past 2 weeks in Newcastle upon Tyne, England, United Kingdom

Now
50 °F

Scattered clouds.


Feels Like: 45 °F
Forecast: 32 / 50 °F
Wind: 15 mph from West

Location: Newcastle

Current Time: Apr 26, 2015 at 4:45:01 PM

Latest Report: Apr 26, 2015 at 3:50 PM


Visibility: N/A

Pressure: 29.74 "Hg

Humidity: 43%

Dew point: 28 °F

Location of Newcastle upon TyneLocation

Historic Weather in Newcastle upon Tyne — Graph

°F

Newcastle upon Tyne temperature yesterday

Maximum temperature yesterday: 54 °F (at 8:50 AM)
Minimum temperature yesterday: 39 °F (at 11:20 PM)
Average temperature yesterday: 47 °F

Past Weeks' High & Low Weather Summary

 TemperatureHumidityPressure
High70 °F (Apr 23, 2:20 PM)100% (Apr 12, 12:50 PM)30.60 "Hg (Apr 12, 12:50 PM)
Low30 °F (Apr 18, 4:20 AM)40% (Apr 23, 2:20 PM)29.45 "Hg (Apr 25, 3:50 AM)
Average47 °F75%30.14 "Hg
* Reported Apr 11 3:20 PM — Apr 26 3:20 PM, Newcastle upon Tyne, Weather by CustomWeather, © 2015

Note: Actual official high and low records may vary slightly from our data, if they occured in-between our weather recording intervals... More about our weather records

Advertising

Newcastle upon Tyne weather history for previous 24 hours

 ConditionsComfort  
Time TempWeatherWind HumidityBarometerVisibility
3:20 PM
Sun, Apr 26
48 °FScattered showers. Scattered clouds.17 mph50%29.74 "HgN/A
2:50 PM48 °FScattered clouds.20 mph54%29.74 "HgN/A
2:20 PM48 °FScattered clouds.8 mph50%29.74 "HgN/A
1:50 PM48 °FScattered clouds.8 mph46%29.74 "HgN/A
1:20 PM50 °FScattered clouds.10 mph50%29.77 "HgN/A
12:50 PM46 °FScattered clouds.8 mph53%29.77 "HgN/A
12:20 PM48 °FScattered clouds.7 mph54%29.77 "HgN/A
11:50 AM46 °FScattered clouds.7 mph57%29.77 "HgN/A
11:20 AM48 °FScattered clouds.6 mph50%29.77 "HgN/A
10:50 AM46 °FScattered clouds.5 mph50%29.77 "HgN/A
10:20 AM46 °FPassing clouds.6 mph57%29.80 "HgN/A
9:50 AM45 °FPassing clouds.6 mph66%29.77 "HgN/A
9:20 AM43 °FPassing clouds.7 mph71%29.77 "HgN/A
8:50 AM41 °FPassing clouds.7 mph70%29.77 "HgN/A
8:20 AM41 °FSunny.7 mph70%29.77 "Hg10 mi
7:50 AM39 °FSunny.8 mph75%29.77 "Hg10 mi
7:20 AM36 °FSunny.7 mph81%29.77 "Hg10 mi
6:50 AM32 °FSunny.5 mph87%29.77 "Hg10 mi
6:20 AM32 °FClear.3 mph87%29.77 "Hg10 mi
5:50 AM32 °FClear.1 mph87%29.77 "Hg10 mi
5:20 AM32 °FClear.3 mph87%29.77 "Hg10 mi
4:50 AM32 °FClear.5 mph80%29.77 "Hg10 mi
3:50 AM32 °FClear.7 mph80%29.77 "Hg10 mi
2:50 AM36 °FClear.7 mph75%29.77 "Hg10 mi
2:20 AM36 °FClear.9 mph75%29.74 "Hg10 mi
1:50 AM37 °FClear.6 mph70%29.74 "Hg10 mi
1:20 AM37 °FClear.5 mph75%29.74 "Hg10 mi
12:50 AM37 °FPassing clouds.5 mph75%29.74 "HgN/A
12:20 AM37 °FClear.7 mph75%29.71 "Hg10 mi
11:50 PM
Sat, Apr 25
39 °FClear.3 mph75%29.71 "Hg10 mi
11:20 PM39 °FClear.5 mph75%29.71 "Hg10 mi
10:20 PM41 °FPassing clouds.2 mph70%29.71 "HgN/A
9:50 PM43 °FPassing clouds.3 mph71%29.71 "HgN/A
9:20 PM41 °FPassing clouds.2 mph70%29.68 "HgN/A
8:50 PM43 °FPassing clouds.3 mph66%29.68 "HgN/A
8:20 PM45 °FPassing clouds.5 mph61%29.68 "HgN/A
7:50 PM48 °FPassing clouds.3 mph54%29.65 "HgN/A
7:20 PM50 °FPassing clouds.2 mph50%29.65 "HgN/A
6:50 PM48 °FPassing clouds.1 mph50%29.65 "HgN/A
6:20 PM52 °FPassing clouds.1 mph47%29.65 "HgN/A
5:50 PM50 °FPassing clouds.3 mph47%29.65 "HgN/A
5:20 PM48 °FScattered clouds.6 mph50%29.65 "HgN/A
4:50 PM48 °FPassing clouds.8 mph54%29.62 "HgN/A
4:20 PM46 °FPassing clouds.9 mph66%29.62 "HgN/A
Weather by CustomWeather, © 2015

See weather overviewHow to use our weather pages